| time (UTC) | temp C | wind direction | speed KPH | gust KPH | rain 1hr cm | rain 24hr cm | rain mn cm | humidity % | barometer mb |
| 20260507070450 | 12 | 299 | 0.0 | 0.0 | 0.00 | 0.20 | 0.00 | 92 | 1004.4 |
| 20260507065702 | 12 | 241 | 0.0 | 0.0 | 0.00 | 0.20 | 0.00 | 92 | 1004.4 |
| 20260507065203 | 12 | 312 | 0.0 | 0.0 | 0.00 | 0.20 | 0.00 | 92 | 1004.2 |
| 20260507064701 | 12 | 281 | 0.0 | 0.0 | 0.00 | 0.20 | 0.00 | 92 | 1004.3 |
| 20260507064200 | 12 | 259 | 0.0 | 0.0 | 0.00 | 0.20 | 0.00 | 92 | 1004.2 |
| 20260507063701 | 12 | 259 | 0.0 | 0.0 | 0.00 | 0.20 | 0.00 | 92 | 1004.3 |
| 20260507063203 | 12 | 328 | 0.0 | 0.0 | 0.00 | 0.20 | 0.00 | 92 | 1004.4 |
| 20260507062655 | 12 | 328 | 0.0 | 0.0 | 0.00 | 0.20 | 0.00 | 92 | 1004.4 |
| 20260507062420 | 12 | 327 | 0.0 | 0.0 | 0.00 | 0.20 | 0.00 | 93 | 1004.5 |
| 20260507061656 | 12 | 329 | 0.0 | 0.0 | 0.00 | 0.20 | 0.00 | 93 | 1004.4 |
| 20260507061153 | 12 | 329 | 0.0 | 0.0 | 0.00 | 0.20 | 0.00 | 93 | 1004.2 |
| 20260507060652 | 12 | 329 | 0.0 | 0.0 | 0.00 | 0.20 | 0.00 | 93 | 1004.2 |
| 20260507060152 | 13 | 329 | 0.0 | 0.0 | 0.00 | 0.20 | 0.00 | 93 | 1004.4 |
| 20260507055650 | 13 | 328 | 0.0 | 0.0 | 0.00 | 0.20 | 0.00 | 93 | 1004.4 |
| 20260507055424 | 13 | 328 | 0.0 | 0.0 | 0.00 | 0.20 | 0.00 | 93 | 1004.5 |
| 20260507054647 | 13 | 328 | 0.0 | 0.0 | 0.00 | 0.20 | 0.00 | 93 | 1004.5 |
| 20260507054147 | 13 | 331 | 0.0 | 0.0 | 0.00 | 0.20 | 0.00 | 93 | 1004.6 |
| 20260507053647 | 13 | 313 | 0.0 | 0.0 | 0.00 | 0.20 | 0.00 | 93 | 1004.7 |
| 20260507053149 | 13 | 313 | 0.0 | 0.0 | 0.00 | 0.20 | 0.00 | 93 | 1004.8 |
| 20260507052647 | 13 | 313 | 0.0 | 0.0 | 0.00 | 0.20 | 0.00 | 94 | 1004.7 |
| 20260507052151 | 13 | 313 | 0.0 | 0.0 | 0.00 | 0.20 | 0.00 | 94 | 1004.5 |
| 20260507051650 | 13 | 312 | 0.0 | 1.6 | 0.00 | 0.20 | 0.00 | 94 | 1004.5 |
| 20260507051148 | 13 | 323 | 0.0 | 1.6 | 0.00 | 0.20 | 0.00 | 94 | 1004.2 |
| 20260507050648 | 13 | 323 | 0.0 | 0.0 | 0.00 | 0.20 | 0.00 | 94 | 1004.3 |
| 20260507050147 | 13 | 323 | 1.6 | 6.4 | 0.00 | 0.20 | 0.00 | 94 | 1004.3 |
| 20260507045905 | 13 | 322 | 1.6 | 6.4 | 0.00 | 0.20 | 0.00 | 94 | 1004.4 |
| 20260507045141 | 14 | 329 | 1.6 | 4.8 | 0.00 | 0.20 | 0.00 | 94 | 1004.6 |
| 20260507044656 | 14 | 320 | 1.6 | 4.8 | 0.00 | 0.20 | 0.00 | 94 | 1004.6 |
| 20260507044141 | 14 | 317 | 1.6 | 4.8 | 0.00 | 0.20 | 0.00 | 94 | 1004.6 |
| 20260507043641 | 14 | 311 | 1.6 | 4.8 | 0.00 | 0.20 | 0.00 | 94 | 1004.5 |
| 20260507043141 | 14 | 321 | 0.0 | 3.2 | 0.00 | 0.20 | 0.00 | 94 | 1004.4 |
| 20260507042909 | 15 | 320 | 1.6 | 4.8 | 0.00 | 0.20 | 0.00 | 94 | 1004.3 |
| 20260507042143 | 15 | 328 | 1.6 | 4.8 | 0.00 | 0.20 | 0.00 | 94 | 1004.5 |
| 20260507041642 | 15 | 320 | 1.6 | 4.8 | 0.00 | 0.20 | 0.00 | 94 | 1004.4 |
| 20260507041142 | 15 | 300 | 1.6 | 4.8 | 0.00 | 0.20 | 0.00 | 94 | 1004.4 |
| 20260507040643 | 15 | 215 | 1.6 | 6.4 | 0.00 | 0.20 | 0.00 | 94 | 1004.5 |
| 20260507040143 | 15 | 232 | 0.0 | 6.4 | 0.00 | 0.20 | 0.00 | 94 | 1004.7 |
| 20260507035640 | 15 | 274 | 0.0 | 0.0 | 0.00 | 0.20 | 0.20 | 94 | 1004.8 |
| 20260507035141 | 15 | 253 | 0.0 | 0.0 | 0.00 | 0.20 | 0.20 | 94 | 1004.7 |
| 20260507034639 | 15 | 256 | 0.0 | 0.0 | 0.00 | 0.20 | 0.20 | 94 | 1004.5 |
| 20260507034141 | 15 | 195 | 1.6 | 6.4 | 0.00 | 0.20 | 0.20 | 94 | 1004.3 |
| 20260507033638 | 15 | 267 | 1.6 | 9.7 | 0.00 | 0.20 | 0.20 | 94 | 1004.4 |
| 20260507033401 | 15 | 247 | 1.6 | 9.7 | 0.00 | 0.20 | 0.20 | 94 | 1004.1 |
| 20260507032626 | 15 | 286 | 1.6 | 11.3 | 0.00 | 0.20 | 0.20 | 94 | 1004.2 |
| 20260507032345 | 15 | 265 | 1.6 | 11.3 | 0.00 | 0.20 | 0.20 | 94 | 1004.4 |
| 20260507031629 | 15 | 281 | 1.6 | 14.5 | 0.00 | 0.20 | 0.20 | 94 | 1004.1 |
| 20260507031125 | 15 | 230 | 3.2 | 17.7 | 0.00 | 0.20 | 0.20 | 94 | 1004.0 |
| 20260507030626 | 15 | 254 | 3.2 | 17.7 | 0.00 | 0.20 | 0.20 | 94 | 1003.8 |
| 20260507030126 | 15 | 237 | 3.2 | 12.9 | 0.00 | 0.20 | 0.20 | 94 | 1003.8 |
| 20260507025623 | 15 | 250 | 3.2 | 14.5 | 0.00 | 0.20 | 0.20 | 94 | 1003.7 |
| 20260507025123 | 15 | 232 | 3.2 | 14.5 | 0.00 | 0.20 | 0.20 | 94 | 1003.6 |
| 20260507024120 | 15 | 242 | 3.2 | 12.9 | 0.00 | 0.20 | 0.20 | 94 | 1003.7 |
| 20260507023622 | 15 | 215 | 3.2 | 16.1 | 0.00 | 0.20 | 0.20 | 94 | 1003.9 |
| 20260507022619 | 15 | 234 | 3.2 | 22.5 | 0.00 | 0.20 | 0.20 | 94 | 1003.9 |
| 20260507022115 | 15 | 231 | 3.2 | 22.5 | 0.00 | 0.20 | 0.20 | 94 | 1003.9 |
| 20260507021833 | 15 | 210 | 4.8 | 16.1 | 0.00 | 0.20 | 0.20 | 94 | 1003.8 |
| 20260507021338 | 15 | 189 | 3.2 | 16.1 | 0.00 | 0.20 | 0.20 | 94 | 1003.9 |
| 20260507020619 | 15 | 250 | 1.6 | 14.5 | 0.00 | 0.20 | 0.20 | 94 | 1003.8 |
| 20260507020115 | 15 | 205 | 1.6 | 11.3 | 0.00 | 0.20 | 0.20 | 94 | 1003.9 |
| 20260507015621 | 15 | 181 | 4.8 | 12.9 | 0.03 | 0.20 | 0.20 | 94 | 1003.8 |
| 20260507015115 | 15 | 200 | 4.8 | 20.9 | 0.03 | 0.20 | 0.20 | 94 | 1003.7 |
| 20260507014840 | 15 | 247 | 3.2 | 20.9 | 0.03 | 0.20 | 0.20 | 94 | 1003.7 |
| 20260507013833 | 15 | 218 | 4.8 | 14.5 | 0.03 | 0.20 | 0.20 | 94 | 1003.8 |
| 20260507013111 | 15 | 247 | 4.8 | 14.5 | 0.03 | 0.20 | 0.20 | 93 | 1003.8 |
| 20260507012828 | 15 | 226 | 4.8 | 14.5 | 0.03 | 0.20 | 0.20 | 93 | 1003.8 |
| 20260507012109 | 15 | 224 | 3.2 | 11.3 | 0.03 | 0.20 | 0.20 | 93 | 1003.9 |
| 20260507011612 | 15 | 269 | 3.2 | 14.5 | 0.03 | 0.20 | 0.20 | 93 | 1004.0 |
| 20260507011339 | 15 | 252 | 3.2 | 14.5 | 0.03 | 0.20 | 0.20 | 93 | 1004.0 |
| 20260507010609 | 15 | 247 | 3.2 | 14.5 | 0.03 | 0.20 | 0.20 | 93 | 1004.1 |
| 20260507005544 | 15 | 235 | 4.8 | 19.3 | 0.00 | 0.18 | 0.18 | 93 | 1004.1 |
| 20260507005251 | 15 | 234 | 3.2 | 19.3 | 0.00 | 0.18 | 0.18 | 93 | 1004.2 |
| 20260507004524 | 15 | 154 | 4.8 | 19.3 | 0.00 | 0.18 | 0.18 | 93 | 1004.2 |
| 20260507004242 | 15 | 213 | 4.8 | 19.3 | 0.00 | 0.18 | 0.18 | 93 | 1004.2 |
| 20260507003509 | 15 | 235 | 3.2 | 17.7 | 0.00 | 0.18 | 0.18 | 93 | 1004.0 |
| 20260507003002 | 15 | 238 | 3.2 | 17.7 | 0.00 | 0.18 | 0.18 | 93 | 1004.0 |
| 20260507002457 | 15 | 256 | 3.2 | 16.1 | 0.00 | 0.18 | 0.18 | 93 | 1004.0 |
| 20260507001943 | 15 | 208 | 3.2 | 17.7 | 0.03 | 0.18 | 0.18 | 93 | 1004.1 |
| 20260507001439 | 15 | 155 | 3.2 | 17.7 | 0.05 | 0.18 | 0.18 | 93 | 1004.1 |
| 20260507000930 | 15 | 253 | 4.8 | 11.3 | 0.05 | 0.18 | 0.18 | 93 | 1003.9 |
| 20260507000647 | 15 | 188 | 4.8 | 19.3 | 0.05 | 0.18 | 0.18 | 92 | 1003.7 |
| 20260506235914 | 15 | 187 | 3.2 | 19.3 | 0.05 | 0.18 | 0.18 | 92 | 1003.7 |
| 20260506235410 | 15 | 234 | 3.2 | 19.3 | 0.05 | 0.18 | 0.18 | 92 | 1003.8 |
| 20260506235116 | 15 | 249 | 1.6 | 9.7 | 0.05 | 0.18 | 0.18 | 92 | 1003.8 |
| 20260506234349 | 15 | 210 | 3.2 | 12.9 | 0.05 | 0.18 | 0.18 | 92 | 1003.8 |
| 20260506233843 | 15 | 234 | 3.2 | 17.7 | 0.05 | 0.18 | 0.18 | 92 | 1003.9 |
| 20260506233332 | 15 | 147 | 3.2 | 17.7 | 0.05 | 0.18 | 0.18 | 92 | 1003.8 |
| 20260506232826 | 15 | 231 | 1.6 | 12.9 | 0.08 | 0.18 | 0.18 | 92 | 1003.7 |
| 20260506232320 | 15 | 227 | 3.2 | 16.1 | 0.08 | 0.18 | 0.18 | 92 | 1003.8 |
| 20260506231312 | 15 | 222 | 4.8 | 16.1 | 0.03 | 0.13 | 0.13 | 92 | 1003.8 |
| 20260506231018 | 15 | 234 | 4.8 | 14.5 | 0.03 | 0.13 | 0.13 | 91 | 1003.7 |
| 20260506230251 | 15 | 227 | 4.8 | 14.5 | 0.03 | 0.13 | 0.13 | 92 | 1003.7 |
| 20260506230016 | 15 | 217 | 3.2 | 12.9 | 0.03 | 0.13 | 0.13 | 91 | 1003.7 |
| 20260506225510 | 15 | 181 | 4.8 | 19.3 | 0.03 | 0.13 | 0.13 | 91 | 1003.7 |
| 20260506224749 | 15 | 240 | 4.8 | 20.9 | 0.05 | 0.13 | 0.13 | 91 | 1003.9 |
| 20260506224249 | 15 | 276 | 3.2 | 20.9 | 0.05 | 0.13 | 0.13 | 91 | 1003.9 |
| 20260506223749 | 15 | 235 | 3.2 | 12.9 | 0.05 | 0.13 | 0.13 | 91 | 1003.9 |
| 20260506223248 | 15 | 207 | 3.2 | 14.5 | 0.05 | 0.13 | 0.13 | 91 | 1004.0 |
| 20260506222752 | 16 | 186 | 4.8 | 14.5 | 0.03 | 0.10 | 0.10 | 90 | 1004.0 |
| 20260506222251 | 16 | 229 | 3.2 | 11.3 | 0.03 | 0.10 | 0.10 | 90 | 1004.0 |
| 20260506221750 | 16 | 222 | 3.2 | 16.1 | 0.03 | 0.10 | 0.10 | 90 | 1004.2 |
| 20260506221251 | 16 | 213 | 3.2 | 16.1 | 0.03 | 0.10 | 0.10 | 90 | 1004.2 |
| 20260506220747 | 16 | 203 | 1.6 | 9.7 | 0.03 | 0.10 | 0.10 | 89 | 1004.2 |
| 20260506220248 | 16 | 206 | 1.6 | 14.5 | 0.03 | 0.10 | 0.10 | 89 | 1004.2 |
| 20260506215748 | 16 | 239 | 1.6 | 14.5 | 0.03 | 0.10 | 0.10 | 89 | 1004.2 |
| 20260506215511 | 16 | 232 | 0.0 | 12.9 | 0.03 | 0.10 | 0.10 | 89 | 1004.3 |
| 20260506214742 | 16 | 242 | 0.0 | 6.4 | 0.00 | 0.08 | 0.08 | 89 | 1004.5 |
| 20260506214242 | 16 | 219 | 0.0 | 6.4 | 0.00 | 0.08 | 0.08 | 88 | 1004.5 |
| 20260506213738 | 16 | 169 | 1.6 | 20.9 | 0.00 | 0.08 | 0.08 | 88 | 1004.6 |
| 20260506213238 | 16 | 188 | 1.6 | 22.5 | 0.00 | 0.08 | 0.08 | 88 | 1004.6 |
| 20260506212739 | 16 | 249 | 1.6 | 22.5 | 0.03 | 0.08 | 0.08 | 88 | 1004.7 |
| 20260506212238 | 16 | 217 | 0.0 | 14.5 | 0.03 | 0.08 | 0.08 | 88 | 1004.5 |
| 20260506211738 | 16 | 236 | 0.0 | 14.5 | 0.03 | 0.08 | 0.08 | 88 | 1004.5 |
| 20260506211507 | 16 | 245 | 0.0 | 11.3 | 0.03 | 0.08 | 0.08 | 88 | 1004.7 |
| 20260506210739 | 16 | 226 | 0.0 | 16.1 | 0.03 | 0.08 | 0.08 | 87 | 1004.6 |
| 20260506210501 | 16 | 251 | 1.6 | 16.1 | 0.03 | 0.08 | 0.08 | 87 | 1004.6 |
| 20260506205737 | 16 | 243 | 0.0 | 16.1 | 0.03 | 0.08 | 0.08 | 87 | 1004.6 |
| 20260506205235 | 16 | 230 | 0.0 | 19.3 | 0.03 | 0.08 | 0.08 | 87 | 1004.6 |
| 20260506204738 | 16 | 187 | 0.0 | 19.3 | 0.03 | 0.08 | 0.08 | 86 | 1004.7 |
| 20260506204235 | 16 | 237 | 0.0 | 9.7 | 0.05 | 0.08 | 0.08 | 86 | 1004.8 |
| 20260506203734 | 16 | 190 | 0.0 | 9.7 | 0.05 | 0.08 | 0.08 | 85 | 1004.9 |
| 20260506203459 | 16 | 233 | 0.0 | 0.0 | 0.05 | 0.08 | 0.08 | 85 | 1004.9 |
| 20260506202730 | 17 | 231 | 0.0 | 12.9 | 0.05 | 0.05 | 0.05 | 85 | 1004.9 |
| 20260506202455 | 17 | 174 | 0.0 | 12.9 | 0.05 | 0.05 | 0.05 | 84 | 1004.9 |
| 20260506201234 | 17 | 180 | 0.0 | 9.7 | 0.05 | 0.05 | 0.05 | 83 | 1004.8 |
| 20260506200729 | 17 | 161 | 0.0 | 9.7 | 0.05 | 0.05 | 0.05 | 83 | 1004.7 |
| 20260506200448 | 17 | 258 | 0.0 | 0.0 | 0.05 | 0.05 | 0.05 | 82 | 1004.7 |
| 20260506195730 | 17 | 160 | 0.0 | 9.7 | 0.05 | 0.05 | 0.05 | 82 | 1004.7 |
| 20260506195223 | 18 | 232 | 0.0 | 11.3 | 0.05 | 0.05 | 0.05 | 81 | 1004.6 |
| 20260506194721 | 18 | 235 | 0.0 | 11.3 | 0.05 | 0.05 | 0.05 | 81 | 1004.8 |
| 20260506194222 | 18 | 169 | 0.0 | 4.8 | 0.03 | 0.03 | 0.03 | 80 | 1004.7 |
| 20260506193722 | 18 | 230 | 0.0 | 3.2 | 0.03 | 0.03 | 0.03 | 78 | 1004.8 |
| 20260506193225 | 18 | 184 | 0.0 | 4.8 | 0.03 | 0.03 | 0.03 | 77 | 1005.0 |
| 20260506192720 | 19 | 235 | 0.0 | 4.8 | 0.00 | 0.00 | 0.00 | 75 | 1005.0 |
| 20260506192225 | 19 | 231 | 0.0 | 14.5 | 0.00 | 0.00 | 0.00 | 74 | 1005.1 |
| 20260506191722 | 20 | 191 | 0.0 | 14.5 | 0.00 | 0.00 | 0.00 | 72 | 1005.1 |
| 20260506191221 | 20 | 242 | 1.6 | 14.5 | 0.00 | 0.00 | 0.00 | 71 | 1005.0 |
| 20260506190945 | 20 | 208 | 1.6 | 14.5 | 0.00 | 0.00 | 0.00 | 69 | 1005.0 |
| 20260506190221 | 20 | 259 | 3.2 | 19.3 | 0.00 | 0.00 | 0.00 | 67 | 1004.9 |
| 20260506185723 | 20 | 203 | 3.2 | 27.4 | 0.00 | 0.00 | 0.00 | 66 | 1004.8 |
| 20260506185222 | 20 | 214 | 1.6 | 27.4 | 0.00 | 0.00 | 0.00 | 65 | 1004.9 |
| 20260506184721 | 21 | 228 | 1.6 | 25.7 | 0.00 | 0.00 | 0.00 | 64 | 1005.1 |
| 20260506184219 | 21 | 235 | 1.6 | 25.7 | 0.00 | 0.00 | 0.00 | 63 | 1005.1 |
| 20260506183955 | 21 | 240 | 1.6 | 29.0 | 0.00 | 0.00 | 0.00 | 62 | 1005.1 |
| 20260506183218 | 21 | 180 | 1.6 | 29.0 | 0.00 | 0.00 | 0.00 | 62 | 1005.0 |
| 20260506182718 | 21 | 213 | 0.0 | 14.5 | 0.00 | 0.00 | 0.00 | 61 | 1005.0 |
| 20260506182220 | 21 | 231 | 1.6 | 30.6 | 0.00 | 0.00 | 0.00 | 60 | 1005.1 |
| 20260506181728 | 21 | 241 | 3.2 | 30.6 | 0.00 | 0.00 | 0.00 | 59 | 1005.1 |
| 20260506181214 | 21 | 192 | 3.2 | 24.1 | 0.00 | 0.00 | 0.00 | 58 | 1005.1 |
| 20260506180946 | 21 | 233 | 3.2 | 29.0 | 0.00 | 0.00 | 0.00 | 58 | 1005.1 |
| 20260506180215 | 21 | 198 | 4.8 | 29.0 | 0.00 | 0.00 | 0.00 | 58 | 1005.3 |
| 20260506175716 | 21 | 266 | 4.8 | 27.4 | 0.00 | 0.00 | 0.00 | 57 | 1005.2 |
| 20260506175444 | 22 | 222 | 3.2 | 32.2 | 0.00 | 0.00 | 0.00 | 57 | 1005.3 |
| 20260506174716 | 22 | 231 | 3.2 | 32.2 | 0.00 | 0.00 | 0.00 | 57 | 1005.3 |
| 20260506174211 | 22 | 234 | 1.6 | 32.2 | 0.00 | 0.00 | 0.00 | 59 | 1005.4 |
| 20260506173710 | 22 | 242 | 1.6 | 32.2 | 0.00 | 0.00 | 0.00 | 59 | 1005.4 |
| 20260506173212 | 22 | 219 | 0.0 | 4.8 | 0.00 | 0.00 | 0.00 | 60 | 1005.5 |
| 20260506172710 | 22 | 195 | 0.0 | 6.4 | 0.00 | 0.00 | 0.00 | 60 | 1005.5 |
| 20260506172210 | 22 | 208 | 1.6 | 14.5 | 0.00 | 0.00 | 0.00 | 60 | 1005.5 |
| 20260506171711 | 22 | 246 | 1.6 | 14.5 | 0.00 | 0.00 | 0.00 | 59 | 1005.5 |
| 20260506171210 | 22 | 232 | 3.2 | 20.9 | 0.00 | 0.00 | 0.00 | 59 | 1005.5 |
| 20260506170712 | 22 | 238 | 3.2 | 25.7 | 0.00 | 0.00 | 0.00 | 60 | 1005.4 |
| 20260506170214 | 21 | 161 | 3.2 | 25.7 | 0.00 | 0.00 | 0.00 | 62 | 1005.5 |
| 20260506165707 | 21 | 220 | 3.2 | 27.4 | 0.00 | 0.00 | 0.00 | 62 | 1005.6 |
| 20260506165207 | 21 | 228 | 4.8 | 27.4 | 0.00 | 0.00 | 0.00 | 62 | 1005.6 |
| 20260506164708 | 21 | 165 | 4.8 | 25.7 | 0.00 | 0.00 | 0.00 | 62 | 1005.7 |
| 20260506164209 | 21 | 230 | 3.2 | 17.7 | 0.00 | 0.00 | 0.00 | 62 | 1005.7 |
| 20260506163710 | 21 | 170 | 3.2 | 24.1 | 0.00 | 0.00 | 0.00 | 62 | 1005.8 |
| 20260506163210 | 21 | 210 | 3.2 | 24.1 | 0.00 | 0.00 | 0.00 | 62 | 1005.9 |
| 20260506162709 | 21 | 202 | 3.2 | 19.3 | 0.00 | 0.00 | 0.00 | 62 | 1006.0 |
| 20260506162216 | 21 | 133 | 3.2 | 20.9 | 0.00 | 0.00 | 0.00 | 61 | 1006.0 |
| 20260506161710 | 21 | 126 | 1.6 | 20.9 | 0.00 | 0.00 | 0.00 | 61 | 1006.2 |
| 20260506161157 | 22 | 156 | 3.2 | 17.7 | 0.00 | 0.00 | 0.00 | 61 | 1006.3 |
| 20260506160651 | 21 | 165 | 3.2 | 17.7 | 0.00 | 0.00 | 0.00 | 60 | 1006.3 |
| 20260506160144 | 22 | 240 | 1.6 | 17.7 | 0.00 | 0.00 | 0.00 | 61 | 1006.4 |
| 20260506155634 | 21 | 227 | 3.2 | 17.7 | 0.00 | 0.00 | 0.00 | 61 | 1006.6 |
| 20260506155115 | 22 | 217 | 3.2 | 17.7 | 0.00 | 0.00 | 0.00 | 59 | 1006.6 |
| 20260506154609 | 22 | 148 | 3.2 | 30.6 | 0.00 | 0.00 | 0.00 | 59 | 1006.7 |
| 20260506154104 | 22 | 251 | 4.8 | 30.6 | 0.00 | 0.00 | 0.00 | 58 | 1006.8 |
| 20260506153554 | 22 | 194 | 1.6 | 12.9 | 0.00 | 0.00 | 0.00 | 60 | 1006.8 |
| 20260506153048 | 22 | 218 | 1.6 | 12.9 | 0.00 | 0.00 | 0.00 | 59 | 1006.9 |
| 20260506152531 | 22 | 271 | 1.6 | 11.3 | 0.00 | 0.00 | 0.00 | 60 | 1007.0 |
| 20260506152023 | 22 | 195 | 1.6 | 19.3 | 0.00 | 0.00 | 0.00 | 60 | 1007.0 |
| 20260506151516 | 22 | 168 | 1.6 | 22.5 | 0.00 | 0.00 | 0.00 | 60 | 1006.9 |
| 20260506151006 | 22 | 243 | 1.6 | 22.5 | 0.00 | 0.00 | 0.00 | 63 | 1007.0 |
| 20260506150501 | 21 | 216 | 1.6 | 24.1 | 0.00 | 0.00 | 0.00 | 63 | 1007.1 |
| 20260506145953 | 21 | 219 | 1.6 | 24.1 | 0.00 | 0.00 | 0.00 | 62 | 1007.2 |
| 20260506144933 | 21 | 256 | 0.0 | 11.3 | 0.00 | 0.00 | 0.00 | 64 | 1007.2 |
| 20260506144427 | 21 | 249 | 1.6 | 16.1 | 0.00 | 0.00 | 0.00 | 65 | 1007.1 |
| 20260506143925 | 20 | 230 | 1.6 | 16.1 | 0.00 | 0.00 | 0.00 | 66 | 1007.1 |
| 20260506143424 | 20 | 150 | 1.6 | 17.7 | 0.00 | 0.00 | 0.00 | 67 | 1007.1 |
| 20260506142924 | 20 | 192 | 0.0 | 17.7 | 0.00 | 0.00 | 0.00 | 67 | 1007.2 |
| 20260506142423 | 20 | 207 | 0.0 | 14.5 | 0.00 | 0.00 | 0.00 | 68 | 1007.3 |
| 20260506141924 | 20 | 228 | 0.0 | 16.1 | 0.00 | 0.00 | 0.00 | 69 | 1007.0 |
| 20260506141419 | 20 | 238 | 0.0 | 16.1 | 0.00 | 0.00 | 0.00 | 68 | 1007.0 |
| 20260506141200 | 20 | 236 | 0.0 | 14.5 | 0.00 | 0.00 | 0.00 | 69 | 1007.1 |
| 20260506140417 | 20 | 228 | 0.0 | 11.3 | 0.00 | 0.00 | 0.00 | 70 | 1007.2 |
| 20260506135931 | 20 | 126 | 1.6 | 16.1 | 0.00 | 0.00 | 0.00 | 71 | 1007.3 |
| 20260506135416 | 20 | 250 | 1.6 | 19.3 | 0.00 | 0.00 | 0.00 | 71 | 1007.3 |
| 20260506134917 | 19 | 213 | 1.6 | 19.3 | 0.00 | 0.00 | 0.00 | 72 | 1007.3 |
| 20260506134415 | 19 | 217 | 1.6 | 19.3 | 0.00 | 0.00 | 0.00 | 73 | 1007.2 |
| 20260506134145 | 19 | 261 | 0.0 | 19.3 | 0.00 | 0.00 | 0.00 | 73 | 1007.4 |
| 20260506133637 | 18 | 200 | 0.0 | 19.3 | 0.00 | 0.00 | 0.00 | 74 | 1007.6 |
| 20260506132910 | 18 | 206 | 1.6 | 17.7 | 0.00 | 0.00 | 0.00 | 75 | 1007.7 |
| 20260506132355 | 18 | 207 | 1.6 | 17.7 | 0.00 | 0.00 | 0.00 | 76 | 1007.8 |
| 20260506131849 | 18 | 186 | 0.0 | 11.3 | 0.00 | 0.00 | 0.00 | 75 | 1007.8 |
| 20260506131346 | 18 | 192 | 1.6 | 20.9 | 0.00 | 0.00 | 0.00 | 77 | 1007.8 |
| 20260506131101 | 17 | 194 | 1.6 | 22.5 | 0.00 | 0.00 | 0.00 | 76 | 1007.8 |
| 20260506130327 | 17 | 214 | 0.0 | 22.5 | 0.00 | 0.00 | 0.00 | 77 | 1007.7 |
| 20260506125822 | 17 | 201 | 0.0 | 14.5 | 0.00 | 0.00 | 0.00 | 78 | 1007.7 |
| 20260506125307 | 17 | 245 | 1.6 | 14.5 | 0.00 | 0.00 | 0.00 | 78 | 1007.7 |
| 20260506124802 | 17 | 182 | 0.0 | 12.9 | 0.00 | 0.00 | 0.00 | 78 | 1007.7 |
| 20260506124254 | 17 | 153 | 0.0 | 8.0 | 0.00 | 0.00 | 0.00 | 79 | 1007.6 |
| 20260506123746 | 17 | 251 | 0.0 | 17.7 | 0.00 | 0.00 | 0.00 | 80 | 1007.8 |
| 20260506123239 | 17 | 177 | 0.0 | 17.7 | 0.00 | 0.00 | 0.00 | 80 | 1007.9 |
| 20260506122734 | 17 | 205 | 0.0 | 14.5 | 0.00 | 0.00 | 0.00 | 80 | 1007.9 |
| 20260506122445 | 16 | 238 | 0.0 | 14.5 | 0.00 | 0.00 | 0.00 | 80 | 1008.0 |
| 20260506121714 | 16 | 274 | 0.0 | 12.9 | 0.00 | 0.00 | 0.00 | 80 | 1007.8 |
| 20260506121208 | 16 | 214 | 1.6 | 12.9 | 0.00 | 0.00 | 0.00 | 81 | 1007.8 |
| 20260506120657 | 16 | 140 | 0.0 | 17.7 | 0.00 | 0.00 | 0.00 | 81 | 1007.8 |
| 20260506115646 | 16 | 224 | 0.0 | 14.5 | 0.00 | 0.00 | 0.00 | 81 | 1008.0 |
| 20260506115131 | 16 | 110 | 0.0 | 14.5 | 0.00 | 0.00 | 0.00 | 81 | 1008.0 |
| 20260506114625 | 16 | 219 | 0.0 | 12.9 | 0.00 | 0.00 | 0.00 | 81 | 1008.0 |
| 20260506114119 | 16 | 138 | 1.6 | 19.3 | 0.00 | 0.00 | 0.00 | 81 | 1008.0 |
| 20260506113609 | 16 | 224 | 1.6 | 19.3 | 0.00 | 0.00 | 0.00 | 81 | 1008.2 |
| 20260506113103 | 16 | 185 | 0.0 | 11.3 | 0.00 | 0.00 | 0.00 | 82 | 1008.3 |
| 20260506112818 | 16 | 244 | 0.0 | 8.0 | 0.00 | 0.00 | 0.00 | 82 | 1008.3 |
| 20260506112306 | 16 | 236 | 0.0 | 14.5 | 0.00 | 0.00 | 0.00 | 82 | 1008.2 |
| 20260506111550 | 16 | 240 | 0.0 | 14.5 | 0.00 | 0.00 | 0.00 | 82 | 1008.0 |
| 20260506111032 | 16 | 149 | 0.0 | 16.1 | 0.00 | 0.00 | 0.00 | 82 | 1008.1 |
| 20260506110521 | 16 | 220 | 0.0 | 16.1 | 0.00 | 0.00 | 0.00 | 82 | 1008.1 |
| 20260506110015 | 16 | 234 | 0.0 | 16.1 | 0.00 | 0.00 | 0.00 | 82 | 1008.1 |
| 20260506105510 | 16 | 224 | 0.0 | 16.1 | 0.00 | 0.00 | 0.00 | 82 | 1008.1 |
| 20260506104955 | 15 | 230 | 0.0 | 9.7 | 0.00 | 0.00 | 0.00 | 82 | 1008.1 |
| 20260506104453 | 15 | 221 | 0.0 | 9.7 | 0.00 | 0.00 | 0.00 | 81 | 1008.0 |
| 20260506103943 | 16 | 211 | 0.0 | 11.3 | 0.00 | 0.00 | 0.00 | 81 | 1008.1 |
| 20260506103433 | 16 | 201 | 0.0 | 11.3 | 0.00 | 0.00 | 0.00 | 81 | 1008.2 |
| 20260506102927 | 16 | 194 | 0.0 | 4.8 | 0.00 | 0.00 | 0.00 | 81 | 1008.2 |
| 20260506102421 | 16 | 231 | 0.0 | 4.8 | 0.00 | 0.00 | 0.00 | 81 | 1008.2 |
| 20260506102142 | 16 | 203 | 0.0 | 14.5 | 0.00 | 0.00 | 0.00 | 81 | 1008.2 |
| 20260506101418 | 16 | 216 | 0.0 | 14.5 | 0.00 | 0.00 | 0.00 | 81 | 1008.1 |
| 20260506100918 | 16 | 244 | 0.0 | 6.4 | 0.00 | 0.00 | 0.00 | 81 | 1008.2 |
| 20260506100419 | 16 | 252 | 0.0 | 6.4 | 0.00 | 0.00 | 0.00 | 81 | 1008.0 |
| 20260506095915 | 16 | 219 | 0.0 | 3.2 | 0.00 | 0.00 | 0.00 | 81 | 1008.2 |
| 20260506095415 | 16 | 157 | 0.0 | 8.0 | 0.00 | 0.00 | 0.00 | 80 | 1008.0 |
| 20260506094915 | 16 | 240 | 0.0 | 8.0 | 0.00 | 0.00 | 0.00 | 80 | 1007.9 |
| 20260506094417 | 16 | 190 | 0.0 | 8.0 | 0.00 | 0.00 | 0.00 | 80 | 1007.8 |
| 20260506093916 | 16 | 172 | 0.0 | 4.8 | 0.00 | 0.00 | 0.00 | 80 | 1007.9 |
| 20260506093412 | 16 | 191 | 0.0 | 4.8 | 0.00 | 0.00 | 0.00 | 80 | 1008.0 |
| 20260506092909 | 16 | 230 | 0.0 | 4.8 | 0.00 | 0.00 | 0.00 | 79 | 1008.0 |
| 20260506092410 | 16 | 182 | 0.0 | 4.8 | 0.00 | 0.00 | 0.00 | 79 | 1008.1 |
| 20260506091910 | 16 | 234 | 0.0 | 1.6 | 0.00 | 0.00 | 0.00 | 79 | 1008.0 |
| 20260506091411 | 16 | 234 | 0.0 | 1.6 | 0.00 | 0.00 | 0.00 | 79 | 1007.9 |
| 20260506090908 | 16 | 190 | 0.0 | 0.0 | 0.00 | 0.00 | 0.00 | 79 | 1008.0 |
| 20260506090405 | 16 | 203 | 0.0 | 3.2 | 0.00 | 0.00 | 0.00 | 79 | 1007.9 |
| 20260506090130 | 16 | 226 | 0.0 | 4.8 | 0.00 | 0.00 | 0.00 | 78 | 1008.0 |
| 20260506085631 | 16 | 213 | 0.0 | 4.8 | 0.00 | 0.00 | 0.00 | 78 | 1008.1 |
| 20260506084859 | 16 | 236 | 0.0 | 14.5 | 0.00 | 0.00 | 0.00 | 78 | 1008.1 |
| 20260506084359 | 16 | 219 | 0.0 | 14.5 | 0.00 | 0.00 | 0.00 | 78 | 1007.9 |
| 20260506083859 | 16 | 207 | 0.0 | 4.8 | 0.00 | 0.00 | 0.00 | 77 | 1008.0 |
| 20260506083359 | 16 | 205 | 0.0 | 4.8 | 0.00 | 0.00 | 0.00 | 77 | 1008.0 |
| 20260506082902 | 16 | 206 | 0.0 | 8.0 | 0.00 | 0.00 | 0.00 | 77 | 1008.0 |
| 20260506082354 | 16 | 222 | 0.0 | 9.7 | 0.00 | 0.00 | 0.00 | 77 | 1008.1 |
| 20260506082125 | 16 | 227 | 0.0 | 12.9 | 0.00 | 0.00 | 0.00 | 76 | 1008.0 |
| 20260506081354 | 16 | 254 | 0.0 | 12.9 | 0.00 | 0.00 | 0.00 | 76 | 1008.0 |
| 20260506080853 | 16 | 197 | 0.0 | 12.9 | 0.00 | 0.00 | 0.00 | 76 | 1007.9 |
| 20260506080358 | 16 | 247 | 1.6 | 16.1 | 0.00 | 0.00 | 0.00 | 76 | 1008.0 |
| 20260506073349 | 17 | 186 | 0.0 | 12.9 | 0.00 | 0.00 | 0.00 | 74 | 1007.8 |
| 20260506072349 | 17 | 161 | 0.0 | 17.7 | 0.00 | 0.00 | 0.00 | 73 | 1007.8 |
| 20260506071848 | 17 | 234 | 0.0 | 14.5 | 0.00 | 0.00 | 0.00 | 73 | 1007.7 |
| 20260506071348 | 17 | 231 | 0.0 | 14.5 | 0.00 | 0.00 | 0.00 | 73 | 1007.7 |
| 20260506070847 | 17 | 216 | 0.0 | 6.4 | 0.00 | 0.00 | 0.00 | 72 | 1007.7 |